Hourly Data Report for September 15, 2017

All times are specified in Local Standard Time (LST). Add 1 hour to adjust for Daylight Saving Time where and when it is observed.

PENTICTON A
BRITISH COLUMBIA

49°27'45.000" N
119°36'08.000" W
344.40 m
1126146
71889
YYF

Download Data

Hourly Data (September 2017)
Hourly Data Report for September 15, 2017
Temp Definition
°C
Dew Point Temp Definition
°C
Rel Hum Definition
%
Wind Dir Definition
10's deg

Wind Spd Definition
km/h
Visibility Definition
km
Stn Press Definition
kPa
Hmdx Definition


Wind Chill Definition


Weather Definition


TIME
00:00 Legend Double Dagger 8.6 -1.6 49 34 10 24.1 97.66     LegendNANA
01:00 Legend Double Dagger 8.3 -1.4 50 35 12 24.1 97.71     Clear
02:00 Legend Double Dagger 7.7 -1.6 52 35 12 24.1 97.75     LegendNANA
03:00 Legend Double Dagger 7.0 -1.9 53 35 16 24.1 97.79     LegendNANA
04:00 Legend Double Dagger 6.7 -1.9 54 36 16 24.1 97.83     Clear
05:00 Legend Double Dagger 7.0 -2.2 52 35 15 24.1 97.87     LegendNANA
06:00 Legend Double Dagger 6.6 -2.1 54 36 16 24.1 97.93     LegendNANA
07:00 Legend Double Dagger 10.8 -0.6 45 35 9 24.1 97.96     Clear
08:00 Legend Double Dagger 14.0 3.1 48 34 11 24.1 97.97     LegendNANA
09:00 Legend Double Dagger 15.4 3.3 44 34 15 24.1 97.96     LegendNANA
10:00 Legend Double Dagger 16.9 3.1 39 35 17 24.1 97.92     Clear
11:00 Legend Double Dagger 18.2 4.2 39 35 15 24.1 97.87     LegendNANA
12:00 Legend Double Dagger 19.4 3.3 34 36 10 24.1 97.82     LegendNANA
13:00 Legend Double Dagger 20.8 5.2 36 6 6 24.1 97.74     Mainly Clear
14:00 Legend Double Dagger 22.5 -0.1 22 3 15 24.1 97.67     LegendNANA
15:00 Legend Double Dagger 22.8 -4.5 16 35 12 24.1 97.62     LegendNANA
16:00 Legend Double Dagger 22.3 1.6 25 36 16 24.1 97.60     Clear
17:00 Legend Double Dagger 20.4 3.7 33 34 9 24.1 97.58     LegendNANA
18:00 Legend Double Dagger 17.2 2.4 37 33 7 24.1 97.59     LegendNANA
19:00 Legend Double Dagger 14.2 -0.9 35 1 10 24.1 97.63     Clear
20:00 Legend Double Dagger 16.9 -3.5 24 3 16 24.1 97.65     LegendNANA
21:00 Legend Double Dagger 15.0 -4.0 26 35 17 24.1 97.68     LegendNANA
22:00 Legend Double Dagger 10.6 -3.0 38 34 7 24.1 97.71     Clear
23:00 Legend Double Dagger 6.8 -2.9 50 36 3 24.1 97.73     LegendNANA

Notes on Data Quality.

Legend

  • E = Estimated
  • M = Missing
  • NA = Not Available
  • ‡ = Partner data that is not subject to review by the National Climate Archives
Date modified: